Wind_Speed
13 12 12 12 12 12 12 13 13 14 14 15 15 16 17 17 18 18 19 19 20 20 21 21 21 21 20 19 20 20 19 19 18 19 20 21 21 22 23 24 25 31 37 31 25 23 22 20 21 23 27 31 33 31 29 29 29 28 28 28 30 31 32
8 8 8 8 8 9 9 10 11 12 12 13 14 15 16 17 18 18 19 20 21 21 22 23 23 24 23 22 23 23 22 22 21 20 20 20 21 21 21 22 24 27 31 30 25 23 24 22 22 23 22 25 32 34 31 31 31 31 31 32 33 34 35
6 6 7 7 8 9 10 11 11 12 13 14 15 16 17 17 18 19 20 20 21 22 22 24 24 25 24 24 25 26 25 25 25 24 24 23 23 23 22 23 24 26 31 32 28 25 24 22 22 23 22 25 33 36 34 33 32 32 32 33 34 36 38
8 8 9 9 10 11 11 12 13 14 15 16 16 17 17 18 18 19 20 20 21 22 22 23 25 25 25 25 26 27 27 27 28 28 27 28 28 28 28 27 27 29 30 31 31 27 21 18 18 20 25 28 31 34 36 35 34 35 35 35 35 36 38
10 10 10 11 11 12 12 12 13 14 15 16 16 17 17 18 18 19 20 21 21 22 23 23 24 25 25 25 26 27 27 28 28 29 29 30 30 30 31 32 32 32 32 33 35 32 25 24 25 28 31 31 30 34 38 38 37 37 37 37 37 38 39
11 11 11 11 12 12 12 12 13 14 15 16 17 17 18 18 18 19 20 20 21 22 23 23 24 25 25 26 26 27 27 27 28 29 30 31 31 31 32 33 34 35 36 38 40 40 37 35 35 37 38 36 35 38 41 40 39 39 40 39 40 41 42
12 12 12 13 13 13 13 13 14 14 15 16 17 18 18 19 19 19 20 21 22 22 23 23 24 24 25 25 26 26 26 27 27 28 29 30 31 31 31 33 34 35 37 39 42 44 43 41 40 41 42 40 38 40 42 42 41 41 42 41 42 44 45
14 14 14 14 14 14 15 15 15 15 16 17 18 19 19 19 20 20 21 21 22 22 22 23 23 24 24 24 25 25 26 26 27 27 28 29 29 30 30 32 32 33 35 36 38 40 39 36 37 38 38 38 36 38 42 42 43 46 47 44 44 46 47
14 14 14 15 15 15 15 16 16 16 16 17 18 19 20 20 20 20 20 20 20 20 21 21 22 22 23 23 23 23 24 25 25 26 27 28 28 28 29 30 30 31 32 32 34 36 31 25 25 24 23 24 24 25 29 30 32 40 45 44 45 48 48
14 15 15 15 15 16 16 16 17 17 17 18 19 20 21 21 21 21 20 20 20 20 20 20 20 21 21 21 22 22 22 23 23 24 25 26 26 27 27 28 28 29 30 30 32 33 29 24 24 20 16 17 18 17 18 18 18 24 29 30 34 40 42
16 16 16 15 16 16 16 16 16 16 17 17 18 20 20 21 21 21 20 19 19 19 19 20 20 20 20 21 21 21 22 22 22 23 24 25 25 26 26 27 27 28 29 29 29 30 27 25 26 23 19 20 20 18 19 19 17 18 20 19 22 28 29
17 17 17 17 17 17 17 17 16 16 16 17 17 18 20 21 22 21 20 19 19 19 20 20 20 20 20 20 20 21 21 21 22 22 23 24 24 25 26 27 27 28 29 28 27 28 27 25 25 25 22 21 21 20 20 21 20 20 21 22 22 25 27
18 18 18 18 18 17 17 18 17 17 17 18 18 19 20 22 24 24 23 22 20 20 21 21 21 21 21 20 20 20 20 20 21 22 23 23 24 25 25 26 27 28 29 29 29 31 32 29 26 25 24 22 21 22 22 22 23 23 23 25 26 26 27
19 19 19 19 19 18 18 18 19 19 19 19 20 20 21 24 26 25 24 24 22 22 22 23 23 23 22 21 21 20 20 20 21 22 23 23 23 24 24 25 26 27 28 29 30 32 34 33 29 28 29 28 25 26 28 27 29 29 27 28 29 29 29
20 19 19 20 20 20 19 19 20 20 20 20 21 21 22 25 27 26 26 25 24 23 23 23 23 24 24 23 23 21 21 21 22 22 23 23 23 23 23 24 25 25 26 27 29 31 33 33 32 31 34 34 31 32 33 32 34 36 34 35 37 36 37
21 21 21 21 22 22 21 20 20 21 21 20 21 22 23 25 26 27 26 25 24 24 24 24 24 24 24 25 24 23 22 22 22 23 23 23 23 23 23 24 23 23 25 27 29 31 33 33 32 30 31 32 30 30 31 30 31 32 31 34 38 38 39
23 22 22 22 22 22 21 20 20 21 21 21 21 22 24 25 26 27 27 26 25 25 25 25 24 24 25 25 24 24 23 23 23 24 24 25 25 25 25 25 24 23 25 26 28 30 32 33 32 31 31 31 30 29 29 29 30 29 26 27 30 31 31
24 23 23 22 21 21 22 21 20 21 22 21 21 22 24 25 26 27 27 26 26 25 25 25 25 24 25 25 25 24 24 23 24 25 25 26 26 26 27 26 25 25 26 26 27 29 30 31 32 33 33 33 33 33 33 34 37 36 33 31 32 33 30
25 25 24 23 22 22 22 22 21 21 22 22 22 22 24 25 26 27 27 26 26 26 25 25 25 24 24 24 24 24 24 24 24 25 26 25 26 27 28 27 26 27 27 27 27 28 28 29 30 30 31 32 32 32 33 35 39 41 40 40 40 39 34
26 26 24 23 23 23 22 23 22 22 22 23 23 23 24 24 25 26 27 26 26 26 26 26 25 25 24 24 24 24 24 24 24 24 25 25 26 27 28 26 26 27 28 29 29 29 29 29 29 29 29 29 29 29 29 30 32 35 38 40 39 37 33
26 27 26 24 24 24 23 24 24 23 23 24 24 23 24 25 25 26 26 27 27 27 26 26 25 25 25 24 24 24 24 24 23 23 24 25 26 27 27 26 27 28 29 29 30 30 29 29 29 29 29 28 28 27 26 27 27 28 29 30 31 30 29
27 28 27 26 25 24 24 24 25 25 24 24 24 24 24 24 25 25 26 27 28 27 26 26 25 25 25 24 24 24 24 23 23 24 25 26 26 26 26 26 27 28 29 29 29 29 29 29 29 29 29 28 27 26 25 25 24 24 24 26 27 27 27
28 28 28 27 26 25 24 24 24 25 25 24 24 24 24 24 24 25 25 27 28 27 26 26 25 25 24 24 24 24 24 24 24 24 25 25 24 24 24 25 26 26 27 28 28 28 29 29 28 28 28 27 25 23 21 21 21 21 22 24 25 27 28
29 28 29 29 28 26 25 24 24 25 25 25 24 24 23 24 24 24 25 26 27 26 26 25 25 25 25 25 24 24 24 24 23 23 23 23 23 23 23 23 24 25 26 27 27 28 28 28 27 27 26 24 21 19 18 20 22 23 23 24 27 30 31
30 29 29 29 28 27 26 25 25 25 25 24 24 24 23 24 24 24 24 25 25 25 24 24 24 24 24 24 24 23 23 23 23 22 21 21 21 21 21 22 23 23 24 26 27 27 27 27 26 26 26 24 22 21 22 23 25 26 26 27 28 29 30
30 29 29 29 28 27 26 25 26 26 24 23 24 24 24 23 24 23 23 23 24 23 23 24 24 23 23 23 22 22 22 22 22 21 20 20 20 20 21 21 22 23 24 25 26 26 26 26 25 24 24 23 22 21 21 21 22 23 23 22 22 23 24
30 29 29 29 28 27 26 25 25 25 24 23 23 24 23 23 23 23 22 22 22 23 23 23 23 23 22 21 21 20 20 20 20 20 19 19 20 20 21 21 21 23 24 25 26 26 26 25 25 24 24 23 21 20 19 18 19 20 20 19 18 20 22
29 28 28 28 27 26 26 26 25 24 23 23 23 23 23 23 23 23 22 22 22 23 23 24 23 23 22 21 20 20 20 20 19 19 19 20 20 21 21 21 22 22 24 25 25 25 26 25 25 25 25 23 21 20 19 19 19 20 21 20 19 19 20
28 27 27 27 27 26 26 26 24 23 23 23 23 23 23 23 23 22 22 23 23 23 24 24 24 23 22 22 22 22 20 20 19 20 20 20 20 20 20 20 21 22 23 23 23 24 25 26 26 25 24 22 20 19 20 19 19 20 23 23 21 20 19
26 26 26 27 27 26 26 26 24 23 24 24 24 24 24 24 23 23 23 23 23 24 24 24 24 24 24 23 23 23 21 20 20 20 20 20 19 19 19 19 20 21 21 22 23 24 26 26 26 26 24 22 20 18 17 18 18 20 23 24 23 21 20
24 24 24 26 26 26 25 25 25 24 24 24 24 24 25 24 24 23 23 23 23 24 25 25 25 25 25 24 24 23 23 22 22 21 21 20 20 19 19 19 19 19 20 22 23 24 25 26 26 26 25 23 21 19 17 17 17 18 21 24 23 21 19
23 23 23 24 24 25 25 25 25 25 24 24 25 26 26 25 24 24 24 23 23 25 26 25 25 26 26 25 25 25 24 23 23 22 21 21 21 19 19 19 19 19 20 22 22 23 24 25 25 25 25 24 23 22 20 18 17 17 18 20 21 20 19
21 22 22 21 22 23 25 25 25 25 25 25 25 26 26 26 25 25 24 23 24 26 26 25 26 26 26 26 26 25 25 24 23 23 22 22 21 21 19 19 19 20 21 21 22 23 23 24 24 25 25 25 24 24 23 21 19 18 18 18 18 17 18
19 19 19 20 21 22 24 25 25 24 25 25 26 26 26 26 26 25 25 25 25 26 26 26 26 27 27 27 26 25 25 24 23 23 22 22 22 21 20 19 19 20 21 21 21 22 22 23 23 24 24 25 24 24 24 22 21 19 18 17 17 16 16
19 18 18 20 22 23 24 24 24 24 24 25 26 25 25 25 26 26 26 26 26 26 25 25 27 27 27 27 26 25 25 24 23 23 23 22 22 22 21 20 20 20 21 20 21 21 22 22 23 23 23 24 25 25 25 24 22 21 19 18 18 17 16
21 20 20 21 22 23 23 23 23 24 24 25 24 23 23 25 26 26 26 27 26 26 25 25 26 27 26 26 26 26 25 25 24 24 23 23 23 22 22 21 21 21 21 21 21 21 22 22 22 22 22 23 24 24 25 25 24 24 24 23 22 21 18
Wind_Direction
247 246 246 246 247 250 253 255 257 259 260 262 263 263 263 264 264 265 266 266 266 266 265 264 262 261 259 256 255 254 254 255 254 254 252 250 250 249 249 251 252 257 263 266 265 265 268 271 274 276 275 273 273 273 272 270 269 266 263 260 258 257 255
245 244 245 245 246 249 253 257 260 262 263 264 264 264 264 264 265 266 266 266 266 266 266 266 265 264 262 259 256 254 252 253 253 252 253 251 250 250 249 249 251 256 264 267 266 266 268 268 268 270 267 266 273 277 273 269 267 264 262 259 258 257 255
257 259 261 261 259 258 258 260 263 265 265 265 264 263 263 264 264 265 264 264 264 264 264 265 265 265 264 263 261 260 257 256 255 254 255 254 253 253 253 252 253 257 263 268 269 267 268 269 268 265 261 266 276 281 278 273 270 267 265 263 260 259 259
275 275 275 276 273 271 269 267 268 269 268 268 267 266 266 266 266 266 267 268 268 267 266 265 266 266 265 264 263 263 262 262 261 260 259 258 257 256 257 256 256 257 261 267 270 268 266 266 263 261 265 270 275 278 279 278 275 272 270 269 267 265 263
282 283 284 285 284 282 281 279 277 275 274 274 274 273 273 273 273 274 274 274 273 272 271 270 270 269 268 267 265 264 263 263 263 263 262 261 260 260 260 259 259 259 260 263 267 268 266 265 264 264 266 269 270 274 278 278 277 275 274 272 271 269 267
287 287 287 288 288 287 285 283 280 278 277 277 277 278 277 277 276 275 275 275 274 274 274 273 273 272 271 270 268 267 266 264 263 263 262 261 262 262 261 261 261 262 262 262 264 267 267 267 267 268 269 269 269 272 276 278 277 277 276 275 273 272 271
294 294 293 292 290 289 288 286 283 281 280 280 279 279 279 279 279 278 277 276 275 276 276 276 276 275 273 272 271 270 269 267 265 264 263 262 262 261 261 261 262 262 263 263 265 267 268 269 270 270 272 273 273 274 276 277 277 276 276 277 277 277 276
302 301 299 297 295 294 292 290 289 286 284 282 280 278 277 277 276 276 275 275 276 276 277 277 277 277 276 275 274 273 271 270 268 266 265 263 262 261 260 260 262 263 263 264 266 267 269 270 271 271 272 274 274 274 275 277 279 278 277 276 277 277 278
302 301 299 297 296 294 292 290 289 287 285 284 282 280 279 279 278 276 275 275 275 276 276 276 276 276 276 275 275 275 273 272 269 267 265 264 262 262 261 260 261 262 263 264 266 268 269 270 270 269 269 269 267 268 273 277 278 277 278 278 277 275 275
300 298 296 296 293 292 291 289 287 286 284 283 283 282 281 281 279 278 277 278 279 280 279 278 276 275 275 274 274 274 273 272 269 266 265 264 261 260 260 261 261 260 261 263 264 266 268 268 268 267 267 267 265 266 270 271 268 271 274 276 276 275 275
300 298 296 294 292 289 286 284 282 281 280 279 279 280 281 280 278 277 279 281 282 282 280 278 277 276 275 275 275 274 273 271 270 268 266 264 261 258 256 256 258 259 260 261 263 265 266 267 269 270 269 269 270 271 270 268 266 268 270 269 269 273 275
300 298 296 294 292 290 288 286 286 285 285 285 285 286 287 286 284 284 287 287 286 285 283 282 281 280 278 278 277 276 274 272 271 268 266 264 262 260 256 253 253 255 257 260 263 265 265 266 269 272 270 269 271 272 270 269 268 266 267 267 265 268 271
300 298 297 295 294 294 293 293 292 292 291 290 289 290 288 286 286 289 292 292 292 291 289 288 287 285 284 282 279 278 277 275 272 269 266 265 263 262 260 257 254 252 253 255 259 263 264 265 267 270 270 269 271 272 271 270 268 267 267 267 264 264 268
301 300 299 297 297 296 296 296 295 293 292 291 289 288 286 284 287 290 292 293 293 293 291 291 290 289 288 286 284 283 282 279 276 273 271 270 267 265 263 261 259 257 254 254 255 259 263 264 265 267 268 268 267 267 267 268 268 268 267 266 266 267 268
300 299 298 297 297 297 296 296 294 292 290 288 287 285 284 284 286 288 289 290 291 290 290 290 290 290 290 289 288 287 285 282 280 278 276 274 272 270 267 264 263 263 262 260 258 258 261 263 265 266 268 269 270 270 272 274 275 274 272 269 268 268 268
296 296 296 295 295 295 294 294 292 290 288 286 284 283 282 282 284 285 286 288 289 289 289 289 289 290 289 289 289 288 286 284 282 280 279 278 276 275 273 270 269 267 265 263 261 261 263 265 267 269 271 274 276 278 282 284 282 279 276 272 270 269 268
293 293 293 293 293 293 292 292 291 289 287 286 285 284 283 284 285 286 287 289 289 289 288 288 288 288 288 287 287 287 286 284 283 281 280 279 279 278 276 275 274 271 267 264 263 263 264 264 265 265 265 265 264 264 267 270 270 268 267 265 265 267 269
291 291 291 291 292 292 292 292 291 289 289 288 287 286 285 285 285 285 287 287 287 287 287 286 285 285 286 286 286 286 285 284 282 281 280 280 280 279 277 277 277 275 271 268 265 265 265 266 267 267 266 265 263 258 255 254 257 259 262 263 262 264 269
288 289 289 290 291 291 291 292 291 289 289 289 288 287 285 285 285 285 287 287 287 287 286 286 285 285 284 285 285 284 283 282 281 280 280 280 280 279 280 281 281 279 277 275 271 270 270 271 272 273 273 272 271 267 262 258 255 255 258 261 263 264 267
285 285 286 288 289 289 290 291 291 291 292 292 292 290 288 288 288 288 289 289 288 287 287 286 287 287 285 284 283 281 280 279 278 278 278 278 277 278 280 282 282 282 282 281 279 278 278 278 277 277 277 277 277 276 273 270 265 261 259 259 261 263 263
286 286 287 288 288 289 290 292 292 294 294 294 294 292 290 288 287 287 287 287 286 285 286 286 287 287 286 285 282 280 279 278 276 275 274 274 274 277 280 282 282 282 282 283 283 284 284 284 284 283 283 285 285 284 282 278 274 270 265 260 258 260 261
287 288 289 289 288 288 289 290 291 292 293 293 293 291 288 286 284 284 283 283 283 284 285 285 285 284 283 281 279 278 276 275 273 271 270 271 274 276 278 279 279 279 280 281 283 284 285 285 285 287 288 289 289 289 287 281 273 266 262 260 258 258 260
287 288 288 287 287 286 285 285 287 288 289 290 290 289 287 284 282 281 280 280 282 283 284 284 282 280 278 277 276 275 274 272 270 268 268 270 271 272 273 274 275 276 277 279 281 282 283 284 286 288 289 291 292 290 286 281 273 266 262 260 260 260 260
286 287 287 287 286 284 284 283 283 283 286 289 289 288 285 282 280 279 278 278 280 281 282 282 281 280 279 277 276 276 275 273 271 271 270 270 270 270 271 271 272 274 276 278 279 280 281 283 286 288 289 289 289 284 274 268 267 267 265 263 265 268 268
285 286 286 285 285 285 284 283 281 282 285 288 289 287 285 282 280 279 278 278 279 281 282 282 282 281 280 279 279 278 278 277 276 275 273 271 270 269 269 268 270 272 274 275 276 278 281 283 286 288 289 290 289 285 278 275 274 272 270 270 271 274 275
284 285 285 284 284 284 283 282 280 282 285 288 288 287 285 284 282 281 281 281 282 283 283 282 282 282 281 281 280 279 279 279 279 279 278 276 273 270 269 269 270 271 271 273 275 278 280 283 285 286 287 289 289 286 282 282 282 278 274 271 270 272 273
283 284 283 283 283 282 281 280 279 282 287 289 289 288 287 286 284 283 284 284 285 286 286 285 285 284 284 283 281 280 280 281 283 284 282 280 277 275 273 271 271 271 271 271 275 278 280 281 283 283 284 285 283 278 274 274 275 274 273 269 267 266 267
282 282 281 281 281 281 281 280 282 285 288 289 289 289 289 288 287 288 288 288 289 290 289 290 290 290 290 290 288 286 286 286 286 284 281 278 276 275 275 274 273 272 272 273 276 278 279 280 281 281 283 284 281 277 276 274 271 270 271 270 267 265 265
278 279 278 278 278 279 280 281 284 287 288 289 289 289 289 289 289 290 290 290 290 290 290 290 291 291 292 291 290 290 290 289 286 284 281 279 277 275 275 275 274 273 273 274 275 275 275 277 279 280 281 282 280 278 279 278 273 270 270 270 267 265 264
274 275 276 277 277 278 278 280 283 286 287 289 290 290 290 289 289 288 287 287 288 286 285 286 288 288 289 288 287 289 290 289 287 285 284 283 282 280 278 276 275 274 274 275 274 273 274 276 277 278 280 280 278 277 277 276 272 270 269 269 267 265 264
273 273 273 275 277 278 279 280 284 286 288 289 290 289 289 288 287 286 285 286 285 282 281 283 284 286 286 285 284 287 289 289 288 286 286 286 284 282 280 278 276 276 275 275 274 274 275 276 276 278 280 279 277 274 273 272 271 268 268 269 268 265 263
274 275 274 274 275 277 280 283 286 288 289 289 289 288 287 286 286 285 284 284 281 278 279 282 283 282 282 281 282 285 288 288 287 287 288 288 286 284 282 280 279 277 275 274 274 274 275 276 277 278 278 278 277 275 272 270 268 265 265 267 267 264 263
276 276 276 275 275 277 281 285 287 288 288 288 287 286 286 285 285 284 283 282 279 278 280 283 282 280 281 281 283 285 286 286 286 287 287 287 286 286 284 281 279 277 275 274 274 274 275 276 277 277 278 278 278 276 273 269 265 263 262 262 261 260 261
279 278 277 277 279 280 282 285 286 286 286 286 285 284 285 284 283 282 281 280 279 279 281 281 280 280 282 283 284 285 284 284 285 285 285 285 285 285 284 282 279 277 275 275 275 275 276 277 277 278 278 278 278 277 274 269 264 261 260 260 259 258 257
288 285 282 282 284 286 286 286 285 284 283 282 282 283 283 281 280 281 282 282 281 281 281 280 279 280 281 282 283 283 284 284 284 284 284 284 283 283 283 281 279 277 276 276 275 275 275 276 277 277 278 277 276 275 274 271 265 260 257 257 258 259 259
293 293 291 290 290 291 290 288 285 282 280 280 280 281 279 278 278 280 282 282 282 282 281 280 279 279 280 280 281 282 283 283 282 282 282 281 281 281 280 279 277 277 277 276 275 274 274 274 274 275 276 276 275 274 273 272 270 266 263 260 258 258 259
Height
1414 1413 1413 1413 1413 1413 1414 1414 1415 1416 1416 1416 1417 1418 1418 1418 1417 1417 1417 1418 1418 1418 1419 1419 1420 1420 1421 1422 1422 1422 1423 1423 1424 1424 1424 1424 1424 1424 1424 1424 1423 1419 1414 1417 1421 1420 1420 1421 1421 1420 1420 1420 1421 1422 1424 1425 1425 1426 1428 1428 1429 1430 1431
1413 1412 1411 1411 1411 1411 1411 1412 1412 1413 1413 1414 1414 1415 1415 1415 1414 1414 1414 1415 1415 1416 1416 1416 1417 1417 1418 1419 1419 1419 1420 1420 1421 1421 1420 1421 1421 1421 1421 1421 1420 1418 1414 1413 1416 1417 1417 1418 1418 1418 1418 1418 1417 1418 1420 1421 1421 1422 1423 1424 1425 1425 1426
1411 1410 1410 1409 1409 1408 1409 1409 1410 1410 1411 1411 1412 1412 1412 1411 1411 1411 1411 1412 1413 1413 1414 1414 1414 1415 1415 1416 1416 1416 1417 1417 1417 1417 1417 1417 1418 1418 1418 1418 1417 1416 1412 1411 1412 1414 1414 1414 1415 1415 1414 1414 1414 1414 1415 1416 1416 1417 1418 1419 1420 1420 1420
1409 1409 1408 1408 1407 1407 1407 1407 1407 1408 1408 1409 1410 1409 1409 1409 1408 1408 1408 1409 1409 1410 1411 1411 1411 1411 1412 1412 1412 1412 1413 1413 1413 1413 1413 1413 1414 1414 1414 1414 1414 1413 1411 1409 1408 1409 1411 1411 1411 1411 1411 1411 1410 1409 1410 1410 1411 1412 1412 1413 1414 1414 1414
1408 1407 1406 1406 1406 1405 1405 1405 1405 1405 1406 1406 1406 1406 1406 1405 1405 1405 1405 1406 1406 1407 1407 1408 1408 1408 1408 1408 1408 1408 1408 1408 1409 1409 1409 1409 1409 1410 1410 1410 1410 1409 1409 1407 1404 1404 1407 1407 1407 1407 1407 1407 1407 1406 1405 1406 1406 1406 1406 1407 1407 1408 1408
1406 1405 1404 1404 1404 1404 1404 1403 1403 1403 1403 1403 1403 1402 1402 1402 1402 1402 1402 1402 1403 1403 1404 1404 1405 1405 1405 1405 1405 1405 1405 1405 1405 1405 1405 1405 1405 1406 1406 1406 1406 1406 1405 1403 1401 1400 1401 1402 1402 1402 1402 1403 1403 1402 1401 1402 1401 1401 1401 1401 1402 1402 1402
1404 1403 1403 1402 1402 1402 1402 1401 1401 1400 1400 1400 1399 1399 1399 1398 1398 1398 1399 1399 1399 1400 1400 1401 1401 1401 1402 1402 1401 1401 1401 1401 1401 1401 1400 1401 1401 1401 1402 1401 1401 1402 1401 1400 1398 1397 1397 1397 1398 1397 1397 1398 1398 1397 1396 1397 1397 1396 1396 1396 1396 1396 1396
1403 1402 1401 1401 1400 1400 1400 1399 1399 1398 1398 1398 1397 1396 1396 1396 1396 1396 1396 1396 1396 1397 1397 1398 1398 1398 1398 1398 1398 1398 1397 1397 1397 1397 1396 1396 1396 1397 1397 1397 1397 1397 1397 1396 1395 1393 1393 1394 1393 1393 1393 1394 1394 1393 1392 1393 1393 1391 1391 1392 1392 1391 1390
1401 1400 1400 1399 1399 1398 1398 1397 1397 1396 1396 1395 1394 1394 1393 1393 1393 1393 1393 1394 1394 1394 1395 1395 1395 1394 1394 1394 1394 1394 1394 1394 1394 1393 1392 1392 1392 1392 1392 1393 1393 1393 1393 1393 1391 1390 1390 1390 1389 1390 1390 1390 1390 1390 1389 1390 1389 1387 1386 1387 1386 1385 1385
1400 1399 1398 1398 1397 1397 1396 1396 1395 1394 1394 1393 1392 1391 1391 1390 1390 1390 1390 1390 1391 1391 1391 1391 1391 1391 1390 1390 1390 1390 1390 1390 1390 1390 1389 1389 1389 1389 1389 1389 1389 1389 1389 1389 1388 1387 1387 1386 1385 1386 1387 1386 1386 1387 1387 1386 1386 1384 1383 1383 1381 1379 1380
1398 1397 1396 1396 1395 1395 1394 1394 1393 1393 1392 1391 1390 1389 1388 1387 1387 1387 1387 1387 1387 1387 1387 1387 1387 1387 1387 1386 1386 1386 1386 1386 1386 1386 1386 1385 1385 1385 1385 1385 1385 1385 1385 1385 1384 1383 1383 1382 1381 1382 1383 1383 1382 1383 1383 1382 1382 1381 1380 1380 1378 1375 1375
1396 1395 1394 1394 1393 1393 1392 1392 1391 1390 1390 1388 1387 1386 1385 1383 1382 1383 1384 1384 1384 1384 1384 1383 1383 1383 1383 1383 1383 1383 1383 1383 1383 1382 1382 1382 1381 1381 1381 1381 1381 1381 1381 1381 1380 1379 1378 1378 1378 1378 1379 1379 1379 1379 1379 1378 1378 1378 1377 1376 1375 1372 1371
1394 1393 1392 1391 1391 1390 1389 1389 1388 1388 1387 1385 1384 1384 1382 1380 1379 1379 1380 1380 1381 1381 1380 1379 1379 1379 1379 1380 1379 1379 1379 1379 1379 1378 1378 1378 1377 1377 1377 1376 1377 1377 1377 1377 1377 1375 1373 1374 1375 1374 1374 1375 1376 1375 1375 1374 1374 1374 1373 1372 1370 1368 1367
1391 1390 1389 1388 1388 1387 1387 1386 1385 1384 1384 1383 1382 1381 1379 1377 1376 1377 1377 1377 1377 1377 1376 1376 1375 1375 1375 1375 1376 1376 1376 1375 1375 1374 1373 1373 1373 1373 1373 1372 1372 1372 1373 1373 1373 1371 1369 1370 1371 1370 1370 1371 1372 1371 1371 1370 1369 1369 1369 1367 1366 1365 1364
1388 1388 1387 1386 1385 1384 1384 1383 1382 1382 1381 1380 1379 1378 1377 1375 1374 1374 1374 1374 1374 1374 1373 1373 1372 1371 1371 1371 1371 1372 1372 1371 1370 1370 1369 1369 1368 1368 1368 1368 1368 1368 1368 1368 1368 1367 1366 1366 1366 1366 1365 1366 1367 1366 1366 1365 1364 1364 1364 1362 1361 1360 1358
1386 1385 1384 1383 1382 1381 1381 1381 1380 1379 1379 1378 1377 1376 1375 1373 1372 1371 1371 1371 1371 1370 1370 1369 1369 1368 1367 1367 1367 1368 1368 1367 1366 1365 1364 1364 1363 1363 1363 1363 1363 1364 1364 1364 1363 1362 1361 1361 1361 1362 1362 1362 1363 1362 1362 1362 1360 1359 1358 1357 1355 1353 1352
1384 1383 1382 1381 1380 1379 1378 1379 1378 1376 1376 1375 1374 1373 1371 1370 1369 1368 1367 1367 1367 1367 1366 1365 1365 1365 1364 1364 1364 1364 1363 1363 1362 1361 1360 1359 1358 1358 1358 1358 1359 1359 1359 1359 1358 1357 1357 1356 1356 1356 1356 1357 1358 1358 1359 1358 1355 1354 1355 1353 1350 1348 1347
1381 1380 1379 1378 1378 1377 1376 1375 1375 1374 1372 1372 1371 1370 1368 1367 1366 1365 1364 1364 1364 1363 1362 1362 1362 1362 1361 1360 1360 1360 1359 1359 1358 1356 1355 1355 1354 1354 1353 1354 1354 1354 1353 1353 1353 1352 1352 1351 1351 1350 1350 1350 1351 1352 1354 1353 1350 1349 1350 1349 1346 1344 1344
1378 1377 1377 1376 1375 1374 1373 1372 1372 1371 1370 1369 1368 1367 1365 1364 1363 1362 1361 1361 1360 1360 1359 1359 1358 1358 1358 1357 1356 1355 1355 1354 1354 1352 1352 1351 1350 1349 1349 1349 1349 1348 1348 1348 1347 1347 1347 1346 1346 1346 1345 1345 1345 1346 1347 1346 1345 1345 1345 1343 1342 1341 1341
1375 1374 1373 1373 1372 1371 1370 1369 1368 1367 1366 1365 1364 1363 1361 1360 1359 1358 1357 1357 1356 1356 1356 1355 1355 1354 1354 1353 1352 1351 1351 1350 1350 1349 1348 1347 1346 1345 1345 1345 1345 1343 1343 1342 1342 1342 1342 1341 1341 1340 1340 1339 1339 1339 1339 1339 1339 1339 1339 1338 1337 1337 1337
1371 1370 1369 1369 1368 1367 1366 1365 1363 1363 1362 1361 1360 1359 1358 1356 1356 1355 1354 1353 1353 1353 1352 1352 1351 1350 1350 1349 1348 1347 1347 1346 1346 1345 1344 1343 1342 1342 1341 1341 1340 1339 1339 1338 1337 1337 1336 1336 1335 1335 1334 1334 1334 1334 1334 1334 1333 1333 1333 1334 1333 1332 1332
1367 1366 1365 1365 1364 1363 1363 1361 1360 1359 1358 1358 1357 1356 1355 1353 1353 1352 1351 1350 1349 1349 1348 1348 1347 1347 1346 1345 1344 1343 1343 1342 1342 1341 1340 1340 1339 1339 1338 1337 1336 1335 1335 1334 1333 1333 1332 1331 1331 1331 1330 1330 1329 1329 1329 1329 1328 1329 1329 1328 1328 1328 1327
1363 1362 1361 1361 1361 1360 1359 1358 1357 1356 1355 1354 1353 1352 1351 1350 1349 1349 1347 1346 1345 1345 1344 1344 1343 1343 1342 1341 1340 1340 1339 1339 1338 1337 1337 1336 1336 1335 1334 1334 1333 1332 1331 1330 1330 1329 1328 1328 1327 1327 1326 1326 1325 1325 1325 1324 1324 1324 1324 1323 1323 1322 1322
1359 1358 1357 1356 1356 1356 1356 1355 1354 1352 1351 1350 1349 1348 1348 1347 1346 1345 1344 1342 1341 1341 1340 1340 1339 1339 1338 1337 1336 1336 1335 1334 1334 1333 1333 1332 1332 1331 1331 1330 1329 1328 1327 1327 1326 1325 1324 1324 1323 1323 1322 1322 1322 1322 1321 1321 1320 1320 1319 1319 1318 1317 1316
1355 1354 1353 1352 1352 1352 1352 1351 1349 1348 1348 1347 1345 1344 1344 1343 1342 1341 1340 1339 1338 1337 1337 1336 1335 1334 1333 1333 1332 1331 1330 1330 1329 1329 1328 1328 1328 1327 1326 1326 1325 1324 1324 1323 1322 1321 1320 1320 1319 1319 1318 1318 1318 1317 1317 1316 1315 1315 1314 1314 1313 1312 1311
1350 1350 1349 1348 1347 1347 1347 1346 1345 1344 1344 1343 1341 1340 1340 1339 1338 1337 1336 1335 1334 1333 1332 1331 1331 1330 1329 1329 1328 1327 1326 1325 1325 1325 1324 1324 1323 1323 1322 1322 1321 1320 1320 1319 1318 1317 1317 1316 1316 1315 1314 1314 1314 1313 1312 1312 1311 1311 1310 1310 1310 1308 1306
1346 1346 1345 1344 1343 1343 1342 1342 1341 1340 1340 1338 1337 1336 1335 1335 1334 1333 1332 1331 1330 1329 1328 1327 1326 1326 1325 1325 1324 1323 1322 1322 1321 1321 1320 1320 1319 1319 1318 1318 1317 1316 1316 1315 1314 1313 1313 1312 1312 1311 1311 1311 1310 1310 1309 1309 1309 1308 1307 1307 1307 1305 1303
1342 1342 1341 1340 1339 1338 1337 1337 1337 1336 1336 1334 1333 1332 1332 1331 1330 1329 1328 1327 1326 1325 1324 1323 1322 1321 1321 1320 1320 1319 1319 1318 1318 1317 1316 1316 1316 1315 1314 1314 1313 1312 1312 1311 1310 1310 1309 1308 1308 1308 1307 1307 1306 1306 1306 1306 1306 1305 1303 1303 1303 1301 1300
1338 1337 1337 1335 1335 1334 1333 1333 1333 1332 1331 1330 1329 1329 1328 1327 1326 1325 1325 1324 1323 1322 1320 1319 1318 1318 1317 1317 1316 1315 1315 1315 1314 1314 1313 1312 1312 1311 1311 1310 1309 1309 1308 1307 1307 1306 1305 1305 1304 1304 1303 1303 1303 1302 1302 1302 1302 1301 1300 1300 1299 1298 1297
1334 1333 1332 1331 1330 1330 1329 1328 1328 1328 1327 1326 1325 1324 1324 1323 1322 1322 1321 1320 1319 1318 1316 1315 1315 1314 1314 1313 1312 1312 1311 1311 1310 1310 1309 1308 1308 1307 1307 1306 1306 1305 1304 1304 1303 1302 1302 1301 1300 1300 1300 1300 1299 1299 1299 1299 1299 1298 1297 1296 1295 1294 1294
1329 1329 1328 1327 1326 1325 1325 1324 1324 1324 1323 1322 1321 1320 1319 1319 1318 1318 1317 1316 1315 1314 1313 1312 1311 1310 1310 1309 1308 1308 1308 1307 1306 1306 1305 1305 1304 1304 1303 1302 1302 1301 1301 1300 1299 1299 1298 1297 1297 1296 1296 1296 1296 1295 1295 1295 1295 1295 1293 1292 1292 1291 1291
1325 1325 1324 1323 1322 1321 1320 1320 1320 1319 1318 1318 1317 1316 1315 1315 1314 1313 1313 1313 1311 1310 1308 1308 1308 1306 1306 1305 1305 1304 1304 1303 1302 1302 1301 1300 1300 1299 1299 1298 1298 1297 1297 1296 1295 1295 1294 1294 1293 1293 1292 1292 1292 1291 1291 1291 1292 1291 1290 1289 1289 1288 1287
1322 1321 1320 1320 1319 1318 1317 1316 1315 1315 1314 1313 1312 1312 1311 1310 1310 1309 1309 1308 1307 1305 1304 1304 1303 1302 1302 1301 1301 1300 1299 1299 1298 1297 1297 1296 1295 1295 1295 1295 1294 1293 1293 1292 1292 1291 1290 1290 1290 1289 1289 1288 1288 1288 1287 1287 1287 1287 1287 1286 1286 1285 1284
1318 1318 1317 1316 1316 1315 1313 1312 1311 1311 1310 1309 1308 1308 1307 1306 1305 1304 1304 1303 1302 1301 1300 1300 1299 1298 1298 1297 1296 1296 1295 1294 1294 1293 1293 1292 1291 1291 1290 1290 1290 1289 1289 1288 1288 1287 1286 1286 1286 1285 1285 1284 1284 1284 1283 1283 1283 1284 1284 1283 1283 1282 1281
1315 1314 1314 1313 1312 1311 1310 1309 1308 1307 1306 1305 1304 1304 1303 1302 1300 1300 1299 1299 1298 1297 1296 1296 1295 1294 1293 1293 1292 1291 1291 1290 1289 1289 1288 1288 1287 1286 1286 1286 1285 1285 1284 1284 1284 1283 1283 1282 1282 1281 1281 1281 1280 1280 1280 1279 1279 1280 1280 1280 1279 1279 1278
1311 1311 1310 1309 1308 1308 1306 1305 1304 1303 1302 1301 1301 1300 1299 1297 1296 1295 1295 1294 1293 1293 1292 1291 1291 1290 1289 1288 1287 1287 1286 1285 1285 1284 1284 1283 1283 1282 1282 1281 1281 1281 1280 1280 1279 1279 1279 1278 1278 1278 1277 1277 1276 1276 1276 1275 1275 1275 1275 1275 1275 1275 1275